Temperature
26 25 24 23 22 21 21 20 20 20 20 19 19 19 19 19 19 19 19 18 18 18 18 18 18 18 18 18 18 18 18 18 18 18 18 18 18 18 18 18 18 18 18
26 25 24 23 22 21 21 20 20 20 20 20 20 19 19 19 19 19 19 18 18 18 19 18 18 18 18 18 18 18 18 18 18 18 18 18 18 18 18 18 18 18 18
26 25 24 24 23 22 21 21 20 20 20 20 19 19 19 19 19 19 19 19 19 19 19 19 18 18 18 18 18 18 18 18 18 18 18 18 18 18 18 18 18 18 18
27 25 24 24 23 22 21 21 20 20 20 20 19 19 19 19 19 19 19 19 19 19 19 18 18 18 18 18 18 18 18 18 18 18 18 18 18 18 18 18 18 18 18
27 26 25 24 23 22 21 21 20 20 20 20 20 19 19 19 19 19 19 19 19 19 19 18 18 18 18 18 18 18 18 18 18 18 18 18 18 18 18 18 18 18 18
28 27 25 24 24 23 22 21 20 20 20 20 20 19 19 19 19 19 19 19 19 19 19 18 18 18 18 18 18 18 18 18 18 18 18 18 18 18 18 18 18 18 18
28 27 26 24 24 23 22 22 21 20 20 20 20 19 19 19 19 19 19 19 19 19 18 18 18 18 18 18 18 18 18 18 18 18 18 18 18 18 18 18 17 17 18
29 27 26 25 24 23 22 22 21 20 20 20 20 19 19 19 19 19 19 19 19 19 19 19 19 18 18 18 18 18 18 18 18 18 18 18 18 18 17 17 17 17 17
29 28 26 25 24 23 23 22 22 21 20 20 20 19 19 19 19 19 19 19 19 19 19 18 18 18 18 18 18 18 18 17 18 17 18 18 18 17 17 17 17 17 17
29 28 26 25 24 23 23 22 21 21 20 19 19 19 19 19 19 18 18 19 19 19 19 18 18 18 18 18 18 18 17 17 17 17 17 17 17 17 17 17 17 17 17
28 27 26 25 24 23 23 22 21 21 20 20 19 19 19 19 19 18 18 18 18 18 18 18 18 18 18 17 17 17 17 17 17 17 17 17 17 17 17 17 17 17 17
27 27 26 25 24 23 22 22 21 20 20 20 19 19 19 19 19 18 18 18 18 18 18 18 18 17 17 17 17 17 17 17 16 16 16 16 17 17 17 17 17 16 16
27 26 25 24 24 23 22 22 21 20 20 19 19 19 19 18 18 18 18 18 18 18 18 17 17 17 17 17 17 17 17 17 17 16 16 16 16 17 17 17 16 16 16
26 25 24 24 23 23 22 21 21 20 20 19 19 19 18 18 18 18 18 18 18 18 17 17 17 17 17 17 17 17 17 16 16 16 16 16 16 16 16 16 16 16 16
25 24 24 23 23 22 22 21 20 20 19 19 19 18 18 18 18 18 18 18 17 17 17 17 17 17 17 17 17 16 16 16 16 16 16 16 16 16 16 15 16 15 15
24 24 23 22 22 21 21 20 20 19 19 19 18 18 18 18 18 18 18 17 17 17 17 17 17 16 16 16 16 16 16 16 16 16 16 16 15 15 15 15 15 15 15
24 23 22 22 21 21 20 20 19 19 19 18 18 18 18 18 18 17 17 17 17 17 17 17 16 16 16 16 16 16 16 16 16 16 15 15 15 15 15 15 15 15 15
23 22 22 21 21 20 20 19 19 19 18 18 18 17 17 17 17 17 17 17 17 16 16 16 16 16 16 16 16 16 16 15 15 15 15 15 15 15 15 15 15 15 15
22 21 21 21 20 20 19 19 19 18 18 17 17 17 17 17 17 16 16 16 16 16 16 16 16 15 15 15 15 15 15 15 15 15 14 15 15 15 14 14 14 14 14
21 21 20 20 20 19 19 18 18 18 17 17 17 17 17 16 16 16 16 16 16 16 16 15 15 15 15 15 15 15 14 14 14 14 14 14 14 14 14 14 14 14 14
20 20 19 19 19 18 18 18 17 17 17 17 16 16 16 16 16 16 16 16 15 15 15 15 15 15 14 14 14 14 14 14 14 14 14 14 14 14 14 14 14 14 14
19 19 19 18 18 18 17 17 16 16 16 16 16 16 16 15 15 15 15 15 15 15 15 14 14 14 14 14 14 14 14 14 13 13 13 14 14 14 14 14 14 14 13
19 18 18 17 17 17 16 16 16 16 15 15 15 15 15 15 15 15 15 15 14 14 14 14 14 14 14 14 13 13 13 13 13 13 13 13 13 13 13 13 13 13 13
18 17 17 16 16 16 16 15 15 15 15 15 15 15 15 14 14 14 14 14 14 14 14 14 14 13 13 13 13 13 13 13 13 13 12 13 13 13 13 13 13 13 13
17 16 16 16 15 15 15 15 15 14 14 14 14 14 14 14 14 14 14 14 14 14 14 13 13 13 13 13 13 13 13 13 13 12 12 12 13 13 12 12 12 12 12
16 16 15 15 15 14 14 14 14 14 14 14 14 14 13 13 13 13 13 13 13 13 13 13 13 13 13 13 13 13 12 12 12 12 12 12 12 12 12 12 12 12 12
Wind_Speed
14 14 13 13 13 11 10 9 8 7 5 4 5 4 4 4 4 4 6 7 6 6 4 2 3 3 2 2 2 2 2 2 1 1 1 2 3 3 3 3 2 3 5
15 14 13 13 13 12 11 10 8 8 7 5 4 4 4 3 4 3 5 7 6 6 5 4 3 3 2 3 3 3 2 2 2 2 1 1 1 2 3 3 3 4 3
16 16 14 12 13 13 12 11 9 9 8 7 5 4 3 2 3 3 4 4 5 6 3 4 4 4 4 4 4 4 4 3 3 3 3 2 2 1 2 2 2 2 3
16 16 16 14 14 14 13 10 9 8 8 7 7 7 6 5 4 4 4 5 5 4 5 4 4 3 3 4 4 4 3 3 3 3 3 3 1 1 1 1 2 3 3
16 17 17 15 14 15 14 12 10 8 8 7 6 6 5 5 4 4 5 5 5 5 5 4 4 4 3 3 3 2 3 3 3 3 2 2 2 3 2 2 1 2 3
16 16 16 14 13 13 13 13 11 9 8 8 6 6 5 4 4 5 5 5 4 5 5 5 4 4 3 3 3 3 4 3 3 2 2 2 2 3 2 2 2 2 2
14 15 15 15 14 13 13 13 13 10 9 8 7 6 5 4 4 4 5 5 4 4 4 5 4 4 4 3 3 4 3 3 3 3 3 2 3 2 2 2 2 2 2
14 15 15 14 13 13 13 12 13 11 10 9 7 6 5 5 4 4 4 4 3 3 4 5 5 5 5 5 4 4 3 3 4 4 3 2 3 2 2 2 2 2 3
12 13 14 14 13 13 12 12 12 11 10 9 7 5 5 5 4 4 4 2 2 3 4 5 5 5 5 4 4 3 3 3 4 4 3 3 3 3 3 3 3 3 3
10 11 12 12 12 11 10 10 11 10 9 9 8 7 6 5 4 3 3 2 2 1 3 4 4 4 4 4 3 3 3 3 3 3 3 3 3 3 2 2 3 3 4
7 10 10 11 10 11 11 10 10 10 10 10 8 7 7 6 5 4 3 3 3 2 2 3 3 3 3 3 3 3 3 3 3 3 3 3 3 2 3 2 3 3 3
5 6 9 9 10 9 10 9 9 9 9 9 8 8 7 7 6 5 4 3 3 3 3 3 3 4 4 3 3 4 3 3 4 3 3 4 3 3 3 3 4 4 4
6 5 8 8 7 8 7 8 8 9 8 8 8 8 7 7 6 5 5 4 4 3 3 3 4 4 4 4 4 4 3 3 4 4 4 4 3 3 3 4 4 4 4
6 5 5 6 6 5 6 6 7 7 7 7 7 7 7 7 6 6 5 5 5 4 4 3 3 3 3 4 3 4 4 4 4 4 4 4 4 4 4 5 4 4 4
5 5 5 5 5 5 5 5 6 6 6 6 6 6 6 5 5 5 5 5 4 5 4 3 3 3 3 3 2 3 4 3 4 3 4 4 4 5 4 5 3 4 4
5 5 5 5 5 5 5 5 5 6 6 6 6 6 5 5 5 5 5 5 4 4 4 4 4 4 4 2 2 2 3 3 4 4 4 5 5 5 6 6 5 4 5
4 4 4 4 4 5 5 6 5 5 6 5 5 5 5 5 4 5 5 5 5 4 4 4 4 4 3 2 1 2 3 4 4 4 4 6 5 3 3 5 7 7 8
4 4 3 3 4 4 5 5 5 5 5 5 4 4 4 4 4 4 4 4 4 4 4 4 4 3 3 3 2 3 4 4 4 5 5 4 2 3 3 4 4 5 5
4 3 2 2 3 4 4 4 5 6 6 5 5 4 4 4 4 4 4 4 3 4 4 4 4 3 3 2 2 3 4 4 5 4 4 3 2 2 2 3 4 5 5
3 2 2 2 3 4 4 4 5 4 4 4 4 4 4 4 4 4 3 3 3 3 3 3 3 3 2 2 2 3 4 4 3 3 2 2 2 2 2 3 4 5 5
4 3 2 2 3 4 3 3 3 3 3 3 3 3 3 3 3 3 3 3 3 2 2 2 1 2 2 2 2 3 3 4 4 3 3 2 1 2 4 4 5 7 6
4 3 3 3 3 3 3 3 2 2 2 2 2 2 2 2 2 2 2 2 3 3 3 2 2 2 2 2 2 3 4 5 4 3 2 1 3 4 5 5 7 7 5
4 4 4 4 3 3 3 3 2 2 2 2 2 2 2 2 2 2 2 2 2 3 3 2 3 2 2 2 2 2 4 5 4 3 3 4 5 5 5 7 7 5 4
4 4 4 4 3 3 3 3 2 2 2 2 2 2 2 2 3 2 1 1 1 1 1 1 1 1 1 1 0 1 2 3 4 4 4 5 5 5 5 4 5 5 4
4 3 4 4 4 4 3 3 3 3 2 2 2 2 2 3 2 1 0 1 1 1 0 1 1 1 1 0 1 1 2 2 2 2 3 3 2 2 2 3 3 3 3
3 3 3 3 4 4 3 4 4 3 2 2 2 2 2 2 2 2 1 3 2 4 3 2 1 0 1 1 0 1 3 3 3 2 3 3 2 3 3 3 2 2 2
Wind_Direction
169 164 164 161 155 152 155 160 161 158 160 163 172 178 175 177 174 169 157 169 185 184 192 190 178 198 187 169 179 170 180 208 197 209 286 270 240 197 194 197 203 185 185
170 165 167 166 160 159 162 164 167 166 174 174 178 178 175 181 179 169 154 177 187 183 194 193 196 189 188 187 197 193 195 217 202 194 207 256 293 246 216 190 198 197 178
173 169 172 172 167 165 168 174 169 170 181 175 180 187 170 189 171 166 163 182 184 186 193 179 200 199 201 198 205 202 201 217 220 210 204 209 211 211 235 218 202 184 181
174 173 174 176 175 170 170 164 165 169 178 182 191 188 183 188 188 174 170 184 184 187 183 188 200 200 202 195 204 200 210 213 226 226 224 228 207 192 222 256 209 194 203
177 175 177 178 178 174 172 168 165 169 175 187 195 198 193 188 183 174 171 183 184 186 183 182 196 204 205 201 207 197 210 217 227 227 213 219 226 221 210 234 238 220 224
179 174 175 172 177 174 171 170 167 172 176 184 191 199 201 189 182 181 175 189 186 187 188 186 194 207 214 214 201 213 211 224 233 242 233 219 214 219 215 227 232 238 232
172 169 171 173 176 175 173 170 168 175 179 185 191 192 199 191 195 194 187 202 191 182 190 189 187 211 213 211 212 213 215 222 230 239 246 242 246 231 222 206 235 252 249
169 169 170 170 173 175 173 171 169 174 180 186 190 190 192 201 200 210 214 201 205 183 173 177 191 209 213 217 217 215 216 225 234 238 236 252 256 247 226 219 222 240 245
170 169 169 169 171 175 173 173 167 171 178 183 180 182 186 199 196 191 218 219 204 200 165 177 187 205 210 224 216 217 221 215 221 236 230 244 247 252 248 230 216 219 244
168 161 160 166 172 172 168 164 159 167 172 178 183 192 192 190 191 205 190 218 229 219 172 178 181 205 206 212 227 220 228 221 226 230 231 247 261 262 259 251 250 234 239
155 159 159 163 164 169 168 168 165 167 175 181 185 185 180 182 185 200 191 198 212 211 198 192 194 204 218 216 217 226 223 229 237 238 223 230 253 272 270 259 254 253 249
126 151 151 154 161 166 171 170 173 176 179 178 178 180 175 177 182 188 189 194 197 206 208 203 205 216 216 218 217 229 227 230 239 241 242 239 243 252 272 278 268 260 248
118 127 141 147 155 163 168 172 175 179 180 177 177 178 180 180 184 185 183 189 194 204 211 212 212 218 218 214 223 228 228 225 236 236 237 243 247 244 258 266 270 271 267
116 123 127 131 134 146 152 163 173 173 175 178 182 182 187 187 184 183 181 184 186 195 205 209 216 218 216 213 216 227 234 232 238 241 241 242 245 246 255 257 262 272 276
135 126 129 128 135 142 151 157 166 167 174 176 183 185 186 183 182 182 182 186 191 200 199 205 214 221 224 231 224 232 237 240 243 241 240 240 238 238 244 256 260 266 269
140 134 133 143 150 156 161 161 167 170 173 179 185 179 182 187 188 188 185 186 192 200 199 207 218 222 229 225 220 228 251 251 249 250 246 242 234 234 231 242 251 250 252
150 144 139 151 157 162 167 168 165 167 171 175 176 173 179 188 193 198 193 195 197 202 208 215 221 214 207 198 194 230 241 251 253 255 253 258 248 226 244 251 251 248 246
147 135 136 149 168 168 165 161 164 165 168 168 170 173 180 190 191 196 198 201 201 205 212 219 219 207 214 194 201 238 239 252 254 256 251 247 274 273 275 270 262 257 251
110 117 145 167 164 158 156 164 176 172 175 178 179 184 187 189 193 198 202 205 206 213 220 218 213 218 220 185 194 248 248 250 255 259 260 241 234 277 302 274 271 271 274
104 102 132 144 142 142 154 170 177 172 176 177 180 186 191 195 199 197 198 207 214 222 227 224 213 210 204 178 185 257 257 260 262 255 244 245 222 242 254 262 265 265 272
102 95 105 110 113 126 140 154 154 165 167 162 170 174 174 188 187 180 187 199 212 218 217 223 217 210 202 192 208 234 260 275 270 257 250 250 240 250 247 254 257 260 269
98 96 97 93 102 115 127 133 139 138 130 132 140 142 151 187 175 156 181 203 210 205 203 202 212 226 210 195 208 230 246 271 277 275 274 255 255 260 253 251 256 264 270
104 103 99 93 100 106 120 137 117 100 105 117 129 143 158 161 159 168 179 201 206 216 217 209 219 223 208 177 180 225 271 278 271 282 285 273 256 253 248 245 251 254 252
113 108 109 111 108 100 106 109 107 115 122 143 154 162 171 171 150 155 184 186 208 195 229 249 242 225 208 160 239 276 274 277 275 281 284 274 253 251 254 255 249 242 242
98 99 109 111 108 97 94 101 105 108 127 150 162 176 176 152 132 135 120 132 75 77 204 289 290 268 235 300 271 266 273 265 259 272 268 264 262 252 250 247 242 236 235
100 103 113 119 108 96 85 84 91 100 121 145 153 168 169 145 145 134 82 60 113 119 120 152 173 268 162 170 60 328 315 294 258 243 262 267 264 258 257 258 251 243 250
Height
1498 1501 1505 1508 1511 1513 1515 1517 1520 1522 1523 1525 1527 1528 1530 1532 1533 1534 1535 1536 1538 1539 1540 1542 1543 1544 1545 1546 1547 1548 1549 1550 1551 1552 1552 1552 1553 1553 1554 1554 1555 1556 1556
1495 1499 1503 1506 1508 1511 1513 1516 1518 1520 1522 1524 1526 1527 1529 1531 1532 1534 1535 1536 1537 1538 1540 1540 1542 1543 1544 1544 1545 1546 1547 1548 1549 1550 1551 1551 1552 1552 1553 1553 1554 1554 1554
1490 1495 1499 1503 1506 1508 1511 1514 1516 1518 1520 1522 1525 1527 1528 1530 1532 1533 1534 1535 1536 1537 1538 1539 1540 1541 1542 1542 1544 1545 1545 1546 1548 1549 1550 1550 1549 1550 1551 1551 1552 1552 1552
1486 1491 1496 1500 1503 1506 1508 1511 1514 1516 1518 1521 1523 1525 1526 1528 1530 1531 1532 1533 1534 1536 1537 1538 1539 1539 1540 1541 1542 1543 1544 1544 1545 1546 1547 1548 1548 1548 1549 1549 1549 1550 1550
1482 1487 1492 1497 1501 1504 1506 1509 1511 1514 1516 1519 1521 1523 1525 1526 1528 1530 1531 1532 1533 1533 1534 1535 1536 1537 1538 1539 1540 1541 1542 1542 1543 1544 1544 1544 1545 1546 1547 1547 1547 1548 1548
1477 1483 1489 1493 1498 1501 1504 1506 1509 1511 1514 1516 1519 1521 1523 1525 1526 1527 1528 1529 1531 1531 1532 1533 1534 1535 1536 1537 1537 1538 1539 1539 1540 1541 1542 1542 1543 1543 1544 1544 1544 1545 1546
1474 1479 1485 1489 1494 1498 1501 1504 1506 1508 1511 1514 1516 1518 1520 1522 1524 1525 1527 1528 1529 1529 1530 1531 1532 1533 1534 1535 1535 1536 1536 1537 1537 1538 1539 1540 1540 1541 1541 1541 1542 1542 1543
1471 1476 1481 1486 1490 1494 1498 1501 1503 1505 1508 1511 1513 1516 1518 1520 1521 1523 1524 1526 1527 1527 1528 1529 1529 1530 1531 1532 1533 1533 1534 1534 1534 1535 1536 1536 1537 1538 1538 1539 1539 1540 1540
1469 1473 1478 1483 1487 1490 1494 1497 1499 1502 1505 1508 1511 1513 1515 1517 1518 1520 1522 1523 1524 1525 1526 1526 1527 1528 1529 1530 1530 1530 1531 1532 1532 1532 1533 1533 1534 1534 1535 1536 1537 1538 1537
1467 1471 1475 1480 1484 1488 1491 1494 1497 1499 1502 1505 1508 1510 1512 1513 1515 1518 1519 1520 1521 1522 1523 1524 1524 1525 1526 1527 1527 1528 1528 1529 1529 1530 1530 1530 1531 1531 1532 1532 1533 1534 1535
1466 1469 1473 1478 1482 1486 1489 1492 1495 1497 1500 1502 1505 1508 1509 1511 1513 1515 1516 1517 1518 1520 1520 1521 1522 1522 1522 1523 1524 1525 1525 1526 1526 1527 1527 1527 1528 1528 1529 1530 1530 1531 1531
1466 1469 1472 1476 1480 1484 1487 1490 1492 1495 1497 1500 1502 1504 1507 1508 1510 1511 1513 1514 1515 1516 1517 1518 1518 1519 1520 1520 1521 1521 1522 1523 1523 1524 1524 1524 1525 1525 1526 1526 1527 1527 1528
1465 1468 1471 1475 1478 1481 1484 1487 1489 1492 1495 1497 1499 1501 1503 1505 1507 1508 1510 1511 1512 1513 1514 1514 1515 1516 1517 1517 1517 1518 1519 1519 1520 1521 1521 1521 1521 1522 1522 1523 1523 1524 1524
1465 1468 1471 1474 1477 1480 1482 1484 1487 1490 1492 1494 1496 1498 1500 1502 1504 1505 1506 1508 1509 1510 1511 1512 1512 1513 1513 1514 1514 1515 1515 1516 1516 1517 1517 1517 1518 1518 1518 1519 1519 1520 1520
1465 1468 1470 1473 1476 1478 1480 1482 1484 1487 1489 1491 1493 1495 1497 1499 1501 1502 1503 1505 1506 1507 1508 1508 1509 1510 1511 1511 1511 1511 1512 1512 1512 1513 1513 1513 1514 1514 1515 1515 1515 1516 1516
1464 1467 1470 1472 1475 1477 1478 1480 1482 1484 1486 1489 1491 1493 1494 1496 1498 1499 1500 1501 1502 1503 1504 1505 1506 1507 1508 1508 1508 1508 1508 1508 1508 1509 1509 1510 1510 1511 1511 1511 1511 1512 1512
1464 1467 1469 1471 1473 1475 1477 1478 1480 1482 1484 1487 1489 1490 1492 1493 1494 1496 1497 1498 1499 1500 1501 1501 1502 1503 1504 1504 1505 1505 1505 1505 1505 1505 1505 1506 1506 1507 1507 1507 1507 1507 1508
1463 1465 1468 1470 1472 1474 1475 1477 1479 1481 1482 1484 1486 1488 1489 1490 1491 1493 1494 1495 1496 1496 1497 1498 1499 1499 1500 1500 1501 1501 1502 1501 1501 1501 1502 1501 1502 1502 1503 1503 1503 1503 1503
1462 1464 1466 1468 1470 1472 1473 1475 1477 1479 1480 1482 1483 1485 1486 1487 1488 1489 1490 1492 1492 1493 1494 1495 1495 1496 1496 1497 1497 1498 1498 1497 1497 1498 1498 1498 1498 1498 1498 1498 1498 1498 1499
1461 1462 1464 1466 1468 1469 1471 1473 1474 1476 1477 1478 1480 1482 1483 1484 1485 1486 1488 1489 1490 1490 1491 1491 1492 1492 1492 1493 1494 1494 1494 1493 1493 1493 1493 1493 1493 1494 1494 1494 1494 1494 1494
1459 1460 1462 1464 1465 1467 1468 1470 1472 1473 1474 1476 1477 1479 1480 1481 1483 1484 1485 1486 1486 1487 1488 1488 1488 1488 1489 1490 1490 1490 1490 1490 1489 1489 1488 1489 1489 1489 1490 1490 1490 1490 1490
1457 1459 1460 1461 1463 1464 1466 1467 1469 1470 1472 1473 1474 1476 1477 1479 1480 1481 1481 1482 1483 1484 1484 1484 1485 1485 1486 1486 1486 1487 1486 1486 1486 1485 1485 1485 1485 1485 1485 1486 1486 1486 1486
1456 1458 1459 1460 1462 1463 1464 1465 1466 1468 1469 1470 1472 1473 1475 1476 1477 1478 1479 1480 1481 1481 1482 1482 1482 1482 1483 1483 1483 1483 1482 1481 1482 1481 1481 1481 1481 1481 1481 1481 1482 1482 1482
1456 1457 1459 1460 1461 1462 1463 1464 1465 1465 1466 1468 1469 1471 1472 1473 1474 1475 1477 1478 1478 1479 1479 1479 1479 1480 1480 1480 1479 1479 1478 1478 1477 1477 1477 1477 1477 1477 1477 1478 1478 1478 1478
1455 1457 1458 1459 1460 1461 1462 1462 1463 1463 1464 1465 1466 1468 1469 1470 1471 1473 1474 1475 1476 1476 1477 1477 1477 1477 1477 1476 1476 1476 1475 1474 1474 1474 1474 1474 1473 1473 1473 1474 1474 1474 1474
1454 1456 1457 1458 1459 1460 1461 1461 1461 1461 1462 1463 1464 1466 1468 1468 1469 1471 1472 1473 1474 1475 1475 1476 1476 1475 1475 1475 1474 1473 1472 1471 1471 1471 1470 1470 1469 1469 1470 1470 1470 1470 1470